Regional Weather Roundup
Issued by NWS

Home | Current Version | Previous Version | Text Only | Print | Product List | Glossary On
Versions: 1 2 3 4 5 6 7 8 9 10 11 12 13 14 15 16 17 18 19 20 21 22 23 24 25 26 27 28 29 30 31 32 33 34 35 36 37 38 39 40 41 42 43 44 45 46 47 48 49 50
000
ASUS43 KBIS 191610
RWRND

NORTH DAKOTA REGIONAL WEATHER ROUNDUP
NATIONAL WEATHER SERVICE BISMARCK ND
1000 AM CST FRI JAN 19 2018

NOTE: "FAIR" INDICATES FEW OR NO CLOUDS BELOW 12,000 FEET WITH NO
SIGNIFICANT WEATHER AND/OR OBSTRUCTIONS TO VISIBILITY.


NDZ001>003-009>011-017-191700-
NORTHWEST NORTH DAKOTA

CITY           SKY/WX    TMP DP  RH WIND       PRES   REMARKS
WILLISTON      CLOUDY    42  31  64 W12       29.58R
MINOT          CLOUDY    41  29  62 W14       29.50R
MINOT AFB      PTSUNNY   38  29  70 W16       29.48R
$$

NDZ018>021-031>035-040>046-191700-
SOUTHWEST NORTH DAKOTA

CITY           SKY/WX    TMP DP  RH WIND       PRES   REMARKS
BISMARCK       PTSUNNY   29  25  85 W3        29.58R
DICKINSON      CLOUDY    36  31  82 W10       29.58R
GARRISON         N/A     40  28  62 W14       29.52F
HETTINGER ARPT PTSUNNY   31  27  85 W8        29.65R
$$

NDZ004>008-012>016-024-026-027-054-191700-
NORTHEAST NORTH DAKOTA

CITY           SKY/WX    TMP DP  RH WIND       PRES   REMARKS
GRAND FORKS    CLOUDY    40  32  73 W12       29.44S
GRND FRKS AFB  PTSUNNY   42  30  61 W17G23    29.44S
DEVILS LAKE    PTSUNNY   37  31  78 W15       29.46S
$$

NDZ022-023-025-028>030-036>039-047>053-191700-
SOUTHEAST NORTH DAKOTA

CITY           SKY/WX    TMP DP  RH WIND       PRES   REMARKS
FARGO          FAIR      32  27  81 W10       29.51R
JAMESTOWN      CLOUDY    34  27  75 NW5       29.50F
$$




USA.gov is the U.S. government's official web portal to all federal, state and local government web resources and services.